EHI
0 0 0 0 0 0 0 0 0 0 1 3 4 4 4 4 3 2 1 4 8 9 7 8 9 9 8 8 8 7 4 1 0 1 2 4 5 5 5 6 5 4 3 3 3 3 3 3 3
0 0 0 0 0 0 0 0 0 0 1 3 4 4 5 4 2 2 2 4 8 9 8 9 10 10 8 8 7 6 3 1 0 0 1 2 3 3 3 4 4 4 3 3 3 3 3 2 2
0 0 0 0 0 0 0 1 1 0 1 2 4 6 5 3 3 4 6 7 8 8 7 10 13 13 10 8 7 5 3 2 1 0 0 0 1 1 1 1 2 3 3 3 3 3 3 2 2
0 0 0 0 0 0 0 1 2 2 2 3 6 6 5 5 11 15 14 11 9 8 8 12 16 18 14 9 7 6 4 3 2 1 0 0 0 0 0 1 1 2 2 3 3 3 3 3 3
0 0 0 0 0 1 1 1 3 4 4 6 7 6 5 10 21 26 20 13 10 10 10 14 19 22 19 13 9 6 5 4 3 2 1 1 0 0 1 1 2 2 3 3 3 3 3 3 3
0 0 0 0 0 1 1 1 3 5 6 6 6 5 6 12 23 25 19 13 12 12 13 15 20 24 24 19 13 8 5 4 4 3 3 2 1 0 0 1 2 3 3 3 1 1 2 3 4
0 0 0 0 0 1 1 0 2 4 5 4 4 5 6 11 16 18 15 13 13 13 14 15 18 22 24 22 18 13 8 5 3 3 2 2 1 0 0 1 2 3 3 2 1 0 1 3 4
0 0 0 0 0 0 0 1 2 4 4 4 3 5 9 12 16 19 18 16 16 15 15 14 15 18 19 20 20 17 12 7 4 2 2 1 0 0 0 1 2 2 2 2 1 1 1 2 3
0 0 0 0 1 1 1 2 4 6 8 7 6 8 13 18 24 27 25 22 19 17 14 13 13 14 15 16 17 16 13 9 5 3 2 2 1 0 0 1 1 2 2 2 2 2 2 2 1
0 0 0 1 1 1 1 1 4 8 11 12 12 14 17 23 29 32 29 24 20 18 15 12 12 13 14 15 14 12 10 8 6 4 3 3 2 1 0 0 1 2 2 2 3 3 2 1 0
0 0 0 1 1 1 0 0 2 6 9 12 14 17 20 23 26 27 26 23 20 20 17 14 12 14 15 16 15 12 9 8 7 6 4 4 2 1 0 0 1 1 1 1 1 2 1 0 0
0 0 0 0 0 0 0 0 1 3 7 10 13 16 20 22 22 22 21 21 21 21 19 16 14 15 15 16 16 14 10 9 8 7 6 5 2 1 0 0 0 0 0 0 0 0 0 0 1
0 0 0 0 0 0 0 0 1 3 7 11 12 14 18 21 22 22 21 22 23 23 20 18 16 14 14 15 16 14 11 10 9 9 8 6 4 2 2 1 1 1 0 0 0 0 0 0 1
0 0 0 0 0 0 0 1 3 6 9 11 11 13 16 18 22 26 26 25 27 26 23 20 18 15 14 15 15 13 11 11 10 9 8 8 8 6 4 3 3 2 1 0 0 0 0 0 1
0 0 0 0 0 0 0 1 5 9 11 11 12 14 16 17 22 29 30 29 30 29 26 23 19 17 16 16 14 12 12 11 9 8 8 9 9 8 7 6 5 4 2 1 1 1 0 0 0
0 0 0 0 0 0 0 2 6 10 14 14 14 16 18 20 23 28 31 30 30 30 28 25 22 20 18 17 14 12 12 11 9 7 7 7 8 9 8 8 7 6 5 3 2 1 0 0 0
0 0 0 0 0 0 0 2 6 10 15 16 15 16 19 21 24 28 32 32 31 31 29 26 24 22 21 18 14 11 11 10 8 6 6 7 7 7 7 8 8 8 7 4 2 1 0 0 0
0 0 0 0 0 0 1 3 6 9 12 15 16 16 19 21 24 29 34 37 37 34 31 28 25 24 23 18 14 12 11 9 7 5 6 6 6 6 5 5 6 7 6 4 2 1 0 0 0
0 0 0 0 0 1 2 4 5 7 9 13 17 20 23 25 28 33 39 43 43 38 34 31 28 26 23 18 15 14 13 12 9 6 6 6 6 6 5 5 5 6 5 4 2 2 1 1 1
0 0 0 0 0 1 2 3 4 5 8 13 18 24 29 32 34 39 43 46 45 41 37 35 32 28 23 18 16 16 16 14 10 7 6 6 6 6 6 6 7 6 5 4 2 2 4 3 3
0 0 0 0 0 1 2 2 2 4 9 15 20 26 33 37 40 44 46 45 43 41 40 39 36 31 24 18 18 20 18 13 9 7 7 7 8 7 7 8 8 7 6 5 4 4 5 5 5
0 0 0 0 0 0 1 1 1 3 10 17 20 25 33 38 40 43 43 42 39 40 42 43 41 35 27 21 22 23 19 12 8 8 9 10 9 9 9 9 9 8 7 6 6 6 6 6 6
0 0 0 0 0 0 0 0 0 3 9 15 19 24 30 34 36 38 38 38 39 41 44 45 43 39 32 25 23 23 18 12 9 9 9 10 10 10 10 10 9 7 6 6 6 6 6 6 6
0 0 0 0 0 0 0 0 0 2 6 11 16 21 26 30 33 35 36 38 41 43 44 44 42 40 35 27 22 19 15 11 10 9 9 10 10 10 9 9 8 6 5 6 7 7 7 6 6
0 0 0 0 0 0 0 0 0 1 5 9 14 20 24 27 29 31 34 38 42 44 43 42 40 38 35 27 20 16 13 12 12 11 10 11 10 9 8 8 7 6 6 7 8 7 6 6 6
0 0 0 0 0 0 0 0 0 2 6 9 14 19 22 23 25 27 32 36 39 41 41 38 34 33 32 26 19 15 13 13 12 11 11 11 9 7 7 7 7 7 7 8 7 6 5 4 4
0 0 0 0 0 0 0 0 0 2 5 9 13 18 21 22 22 26 30 33 35 37 36 33 31 30 28 23 18 15 13 12 11 9 9 8 6 6 7 7 7 7 8 8 7 5 4 3 3
0 0 0 0 0 0 0 0 0 2 4 7 9 15 20 21 22 25 28 31 35 36 35 32 30 29 26 21 17 14 13 12 12 10 8 6 4 4 5 7 7 7 7 7 6 3 2 2 3
0 0 0 0 0 0 0 0 1 2 4 5 7 11 16 18 18 21 27 33 38 39 36 32 29 26 23 20 16 14 14 15 15 13 10 7 5 4 4 5 6 6 5 4 4 2 1 1 2
0 0 0 0 0 0 0 0 1 3 5 6 7 9 12 14 15 18 26 35 42 41 37 32 28 23 21 19 15 13 15 16 16 14 12 9 6 4 3 4 5 5 3 2 2 2 1 0 1
Wind_Speed
3 2 2 2 4 5 1 2 1 3 5 6 8 10 9 7 5 5 3 12 14 11 8 11 13 12 13 14 13 13 12 12 12 12 12 11 11 11 11 11 11 11 11 11 11 11 10 11 11
2 2 2 4 5 3 2 1 4 4 6 7 9 10 9 8 8 10 7 12 14 12 8 10 14 13 14 14 13 13 12 12 12 11 12 11 11 11 11 11 11 10 10 10 10 10 9 9 9
2 1 3 4 2 3 3 2 4 4 6 7 6 6 6 6 8 7 9 16 13 10 7 10 15 14 14 14 13 13 12 12 12 11 11 11 11 10 10 10 10 10 9 9 9 9 9 8 8
1 3 4 3 2 4 4 3 3 5 5 6 8 7 5 5 6 10 15 16 13 10 8 10 15 15 14 13 13 12 12 11 11 11 11 10 10 9 9 10 9 9 9 8 8 8 8 7 7
3 4 4 2 3 3 3 4 4 4 4 6 10 8 4 4 13 17 16 15 14 10 7 9 14 14 13 12 12 11 11 11 11 10 10 10 9 9 9 9 9 8 8 8 8 7 7 7 6
4 4 3 2 3 2 1 2 6 6 7 8 10 8 3 6 13 14 15 13 13 12 8 8 13 14 13 12 12 11 10 10 10 10 10 9 9 8 8 9 8 8 8 8 7 7 6 6 6
3 2 2 3 3 2 2 2 5 5 6 5 9 8 4 5 10 13 13 12 11 10 8 6 7 9 12 12 11 10 10 9 9 9 9 9 8 8 8 8 8 7 7 6 6 6 6 5 5
4 3 2 2 2 3 1 2 2 5 5 7 7 10 8 8 11 12 12 11 10 8 7 6 5 5 5 7 10 10 10 9 9 9 9 8 8 7 7 6 6 6 6 6 5 5 5 4 4
3 3 3 4 3 3 2 3 1 2 6 5 4 7 12 15 15 13 11 9 8 8 6 6 5 4 4 5 7 8 9 8 8 6 8 7 3 3 3 5 5 5 5 5 4 4 4 4 4
4 3 8 6 4 2 2 3 3 3 6 5 8 10 14 15 15 15 13 11 9 9 7 6 6 5 4 4 4 3 3 3 3 2 3 2 2 2 3 4 5 5 4 4 4 4 3 2 2
3 6 6 6 5 3 2 2 1 6 5 9 14 16 16 14 13 13 13 12 11 10 9 7 7 6 5 3 3 2 1 2 2 3 3 2 2 1 1 1 2 2 2 1 1 2 1 2 2
3 6 5 6 5 3 3 2 1 4 7 11 17 18 16 14 13 13 12 11 10 10 9 8 7 6 5 4 3 2 2 2 2 2 3 3 2 2 1 1 1 1 1 1 1 1 2 2 3
4 6 7 6 4 4 2 3 3 4 7 11 14 15 15 14 11 10 10 10 10 10 9 9 8 7 5 4 3 3 2 2 2 2 2 3 3 3 2 1 1 1 1 2 2 1 2 2 2
5 4 6 5 4 3 3 2 2 5 11 13 14 14 13 13 11 10 10 10 10 10 10 9 9 8 6 4 3 3 3 2 2 2 3 3 3 3 3 2 2 1 2 2 2 2 2 2 2
2 4 7 5 3 3 2 2 4 8 11 12 13 13 13 12 11 12 12 11 10 10 10 9 9 8 7 5 4 3 3 3 2 2 3 3 3 3 3 2 2 2 2 2 2 2 2 2 2
4 2 4 7 3 4 5 5 7 8 10 10 11 12 12 11 11 11 11 10 9 9 9 9 9 8 7 6 4 3 3 3 2 2 2 3 3 4 3 3 2 2 2 2 2 2 2 2 2
3 2 5 8 5 2 3 5 6 7 11 11 11 11 11 10 8 9 11 11 10 10 10 9 8 8 7 6 4 3 3 3 2 2 2 2 3 3 3 3 2 2 2 2 2 2 2 2 1
5 4 5 7 5 1 2 5 7 7 10 11 11 10 10 11 10 9 10 10 9 9 9 9 8 7 6 4 3 3 3 2 2 2 2 3 2 3 3 2 2 2 2 2 2 3 2 1 1
5 5 7 9 7 2 5 6 8 7 7 9 9 10 10 9 8 8 9 9 9 8 8 9 8 7 6 4 4 3 2 2 1 2 3 3 3 3 3 2 2 3 3 3 3 2 2 1 1
6 6 8 8 6 2 4 5 5 5 7 10 11 11 10 8 7 8 8 8 9 8 8 8 8 7 6 5 4 3 3 2 2 1 1 2 3 3 3 3 2 2 3 3 2 2 2 1 1
7 7 7 7 5 3 1 3 2 2 2 5 8 10 11 13 12 10 9 8 9 9 8 8 8 7 6 6 4 3 3 2 1 1 1 1 2 3 3 3 3 3 3 2 2 2 3 1 0
7 8 6 5 1 3 1 2 5 2 1 4 6 8 10 11 10 10 10 8 9 8 7 7 8 7 6 7 6 7 5 3 3 2 2 1 2 2 3 3 3 3 2 3 2 2 2 3 1
8 7 5 4 2 2 1 2 6 1 2 4 6 9 10 11 11 11 10 9 8 7 6 6 7 6 6 6 6 6 4 3 2 2 2 2 1 2 2 3 3 3 2 3 2 2 2 2 2
5 1 3 3 4 1 5 3 4 3 6 6 6 8 9 9 9 9 8 7 6 5 5 6 6 5 5 6 5 5 5 5 5 4 3 2 1 1 1 2 2 2 2 2 2 2 2 2 2
1 4 3 4 3 5 3 3 5 5 4 7 8 7 7 8 8 8 8 8 7 7 6 6 7 5 4 5 5 5 5 5 6 5 4 3 2 2 2 2 2 2 2 2 2 2 2 2 2
4 9 8 5 4 4 2 2 4 2 1 3 6 7 7 7 7 7 7 7 8 8 7 7 7 6 5 5 4 4 4 3 3 3 3 3 2 2 3 3 3 3 3 2 2 1 1 1 2
2 3 8 7 2 0 2 1 3 3 4 4 5 7 6 6 7 7 7 7 7 7 6 7 7 6 5 5 5 4 4 3 3 3 3 2 2 2 2 2 2 2 3 2 2 1 2 1 1
5 4 5 5 3 2 2 2 3 2 1 3 4 6 5 5 6 6 7 7 6 5 5 5 6 6 5 5 4 4 3 3 3 3 3 3 2 2 2 2 2 2 2 2 2 1 1 2 2
1 2 4 4 5 5 2 5 5 7 5 5 4 5 6 6 6 5 6 6 7 6 6 5 4 4 4 4 4 4 3 3 3 3 3 2 2 2 2 2 2 2 3 2 2 2 2 2 2
5 5 6 4 3 4 4 6 3 5 5 6 5 4 4 5 5 6 7 6 6 6 6 5 5 5 4 4 4 4 3 3 3 2 3 3 3 2 2 2 2 2 2 2 3 3 3 3 2
Wind_Direction
232 213 143 64 47 47 352 266 161 59 38 59 80 89 91 78 107 132 139 138 136 141 142 138 132 128 124 120 118 115 111 107 105 104 105 104 103 104 108 114 116 117 118 117 117 118 117 117 117
221 188 73 55 71 48 299 255 72 88 121 103 76 80 78 71 86 111 122 140 138 137 137 137 133 130 127 124 123 121 117 113 110 109 109 109 108 107 109 114 118 120 120 121 120 121 120 119 118
253 184 84 65 92 172 211 215 136 113 114 98 81 57 71 98 109 125 142 142 134 133 136 141 135 133 131 128 127 126 123 121 118 114 111 110 110 109 109 113 117 121 124 124 124 124 123 119 118
63 47 49 67 250 233 201 208 135 103 79 82 95 69 57 88 117 130 135 137 132 133 137 141 138 136 133 131 131 131 129 128 124 119 116 113 112 110 112 115 119 125 128 129 130 131 132 126 122
66 70 48 351 277 272 204 178 132 117 98 98 95 92 64 56 110 127 135 137 133 135 138 141 140 138 135 133 132 134 133 132 128 123 120 117 116 115 115 118 120 126 133 134 135 136 136 134 129
44 65 68 297 289 284 247 149 114 115 117 113 102 103 98 114 120 133 135 136 135 137 138 140 145 142 140 138 136 134 133 134 131 126 124 122 121 121 122 124 122 125 136 140 142 143 139 139 135
116 96 190 241 286 296 237 131 118 135 140 137 124 106 124 136 135 136 133 132 131 134 136 137 143 145 145 143 141 140 137 135 135 133 130 129 126 125 126 130 129 126 132 142 145 145 143 142 140
148 99 299 261 245 270 193 105 125 148 132 127 125 133 157 165 138 130 126 127 129 131 136 137 138 137 140 146 148 146 141 138 137 139 139 140 139 135 134 136 140 137 133 136 139 144 145 147 141
120 87 245 236 213 242 126 90 56 93 105 114 118 142 153 148 137 129 125 124 132 138 144 142 136 134 135 145 150 150 148 148 144 146 152 148 144 147 146 149 151 150 148 147 146 146 143 137 125
117 168 234 229 213 222 187 162 176 112 107 98 94 113 135 142 139 140 143 145 148 154 158 154 150 145 145 151 137 144 151 152 149 154 157 149 155 176 168 168 166 163 163 164 160 155 155 143 105
180 206 241 261 245 207 205 226 205 136 144 152 147 148 150 147 148 150 154 157 159 159 157 157 159 154 155 146 142 142 139 146 158 166 164 156 157 172 168 158 174 176 175 162 163 158 137 135 131
248 258 243 253 261 234 206 203 143 158 179 164 154 153 154 152 158 161 160 159 156 155 158 155 154 153 157 147 152 149 150 158 169 178 170 158 154 153 159 166 169 166 157 142 133 126 135 141 147
254 262 266 260 259 235 190 175 155 164 150 141 143 149 156 158 161 161 156 156 155 157 159 158 155 155 154 146 160 155 164 168 175 170 172 167 158 164 170 172 175 177 152 147 139 131 135 129 137
251 274 284 280 266 233 182 219 131 175 147 146 151 157 165 164 160 152 151 156 159 160 161 159 156 158 157 156 162 162 167 164 161 162 171 162 157 162 162 166 175 185 168 157 144 146 140 134 135
277 320 311 285 260 234 133 299 201 177 153 153 160 162 165 166 161 162 163 162 161 162 158 155 156 156 156 154 166 163 164 154 153 158 161 154 149 154 155 161 166 186 164 141 127 120 106 111 114
352 351 299 285 261 246 136 226 231 177 156 159 166 167 168 171 170 168 163 157 156 153 152 156 158 157 156 155 163 161 157 151 151 151 149 150 152 153 151 153 163 167 143 128 125 114 104 103 117
352 281 271 290 271 240 146 214 228 184 163 167 170 171 169 169 168 167 162 159 156 154 153 157 154 156 157 154 148 141 143 151 155 148 146 154 153 146 146 153 155 143 133 129 138 118 128 126 134
242 249 266 269 277 238 221 226 222 198 174 172 172 165 163 167 176 167 159 156 151 150 152 155 152 154 147 135 121 117 118 134 144 153 161 162 157 145 139 143 142 130 122 120 121 119 115 137 154
236 261 272 273 272 237 235 228 229 210 181 172 166 163 165 170 167 153 146 146 142 145 151 154 154 156 149 144 146 148 152 150 145 158 157 158 155 150 139 143 139 136 135 149 140 127 109 103 102
253 266 275 286 282 251 231 235 224 204 184 173 168 170 166 158 153 153 145 147 152 158 160 155 158 161 160 161 157 153 147 153 159 161 153 157 148 155 153 149 151 151 136 130 136 126 127 143 114
257 242 250 260 297 333 102 306 283 260 188 165 166 170 167 166 164 157 149 159 161 166 164 161 164 164 160 151 134 116 91 72 81 136 180 179 155 152 147 150 151 153 144 149 156 145 148 164 203
249 248 247 254 282 285 142 238 275 231 176 179 176 167 168 165 160 160 158 161 166 166 160 156 159 159 159 156 155 155 155 163 188 185 174 160 147 143 144 147 150 154 151 155 170 162 163 150 173
227 244 244 247 226 303 319 147 276 311 190 213 189 173 168 167 163 161 163 163 159 154 153 148 148 151 155 160 163 164 160 161 149 141 141 148 145 146 145 140 146 157 162 166 157 144 145 157 170
226 305 355 30 68 298 250 158 267 253 212 204 189 168 163 162 158 156 152 144 137 140 146 145 144 153 157 154 155 162 160 154 148 152 161 172 172 185 157 140 144 167 176 174 170 160 152 164 166
136 94 34 357 5 248 255 145 238 260 215 188 176 164 155 152 148 149 148 148 150 152 154 155 149 156 161 156 157 160 162 164 169 169 172 166 171 197 201 174 167 177 187 178 161 153 169 174 173
205 147 159 191 218 269 334 181 244 269 79 140 145 142 138 140 144 151 159 159 161 161 161 160 160 163 166 165 164 160 156 156 160 163 163 172 181 199 195 176 175 176 173 174 166 163 189 175 188
176 189 170 146 191 187 285 277 310 23 64 88 112 113 123 137 144 150 156 156 159 159 160 165 167 168 172 172 159 153 154 150 149 152 148 158 171 180 180 184 179 179 178 177 163 173 202 181 194
158 161 95 114 148 226 267 220 223 227 122 90 119 132 143 143 148 155 154 153 149 149 147 159 165 172 172 167 163 155 155 157 154 152 154 159 177 182 178 196 189 183 185 183 168 190 217 204 224
99 97 110 129 155 157 218 260 222 188 172 149 151 155 152 154 155 154 149 148 147 143 142 142 153 147 149 156 151 146 148 159 155 166 179 177 178 184 186 195 187 182 191 194 183 219 226 219 238
161 165 141 150 225 165 166 256 273 167 153 138 130 132 139 150 154 151 145 141 144 148 148 153 157 155 163 166 155 157 160 161 163 182 194 186 187 195 198 187 177 181 181 182 185 210 223 216 228